Location: �chenoz-la-M�line
(47.6009°N, 6.1354°E)
Time: 16:14:52
(UTC+00:00)

USA 238 DEB - Pass Details

Date: 27 January 2021
Orbit: 992 x 1220 km, 63.4° (Epoch: 02 March)

Event Time Altitude Azimuth Distance (km) Brightness Sun altitude
Rises 05:51:52 0° 232° (SW) 3,723 6.2 -12.9°
Reaches altitude 10° 05:54:27 10° 235° (SW) 2,794 5.5 -12.4°
Maximum altitude 06:00:58 62° 316° (NW) 1,167 3.7 -11.4°
Drops below altitude 10° 06:07:51 10° 37° (NE) 2,948 6.3 -10.3°
Sets 06:10:39 0° 41° (NE) 3,943 7.0 -9.8°
